| time (UTC) | temp F | wind direction | speed MPH | gust MPH | rain 1hr in | rain 24hr in | rain mn in | humidity % | barometer mb |
| 20260905053018 | 74 | 194 | 4.0 | 6.0 | 0.00 | 0.00 | 0.00 | 47 | 1003.4 |
| 20260905051526 | 74 | 194 | 4.0 | 6.0 | 0.00 | 0.00 | 0.00 | 49 | 1003.4 |
| 20260905050018 | 74 | 187 | 4.0 | 6.0 | 0.00 | 0.00 | 0.00 | 52 | 1003.4 |
| 20260905044518 | 73 | 183 | 2.0 | 3.0 | 0.00 | 0.00 | 0.00 | 59 | 1003.3 |
| 20260905043017 | 74 | 183 | 0.0 | 2.0 | 0.00 | 0.00 | 0.00 | 60 | 1003.3 |
| 20260905041516 | 75 | 182 | 0.0 | 2.0 | 0.00 | 0.00 | 0.00 | 60 | 1003.2 |
| 20260905040015 | 74 | 182 | 2.0 | 4.0 | 0.00 | 0.00 | 0.00 | 62 | 1003.3 |
| 20260905034516 | 74 | 182 | 2.0 | 4.0 | 0.00 | 0.00 | 0.00 | 61 | 1003.3 |
| 20260905033014 | 76 | 182 | 3.0 | 4.0 | 0.00 | 0.00 | 0.00 | 59 | 1003.3 |
| 20260905031514 | 77 | 182 | 2.0 | 3.0 | 0.00 | 0.00 | 0.00 | 56 | 1003.2 |
| 20260905030015 | 79 | 182 | 0.0 | 0.0 | 0.00 | 0.00 | 0.00 | 53 | 1003.2 |
| 20260905024515 | 81 | 182 | 0.0 | 1.0 | 0.00 | 0.00 | 0.00 | 51 | 1003.1 |
| 20260905023016 | 82 | 182 | 1.0 | 3.0 | 0.00 | 0.00 | 0.00 | 50 | 1003.0 |
| 20260905021512 | 83 | 181 | 1.0 | 5.0 | 0.00 | 0.00 | 0.00 | 48 | 1002.9 |
| 20260905020012 | 85 | 173 | 4.0 | 12.0 | 0.00 | 0.00 | 0.00 | 46 | 1002.7 |
| 20260905014510 | 86 | 202 | 3.0 | 6.0 | 0.00 | 0.00 | 0.00 | 45 | 1002.5 |
| 20260905013012 | 87 | 215 | 4.0 | 7.0 | 0.00 | 0.00 | 0.00 | 43 | 1002.3 |
| 20260905011515 | 88 | 194 | 3.0 | 10.0 | 0.00 | 0.00 | 0.00 | 41 | 1002.3 |
| 20260905010009 | 89 | 197 | 5.0 | 12.0 | 0.00 | 0.00 | 0.00 | 40 | 1002.2 |
| 20260905004508 | 90 | 203 | 3.0 | 12.0 | 0.00 | 0.00 | 0.00 | 40 | 1002.2 |
| 20260905003010 | 90 | 187 | 3.0 | 9.0 | 0.00 | 0.00 | 0.00 | 38 | 1002.2 |
| 20260905001510 | 91 | 188 | 7.0 | 15.0 | 0.00 | 0.00 | 0.00 | 36 | 1002.2 |
| 20260904234550 | 93 | 163 | 7.0 | 17.0 | 0.00 | 0.00 | 0.00 | 30 | 1002.1 |
| 20260904233052 | 94 | 162 | 11.0 | 17.0 | 0.00 | 0.00 | 0.00 | 24 | 1002.2 |
| 20260904231552 | 94 | 187 | 9.0 | 16.0 | 0.00 | 0.00 | 0.00 | 26 | 1002.1 |
| 20260904230104 | 94 | 207 | 10.0 | 18.0 | 0.00 | 0.00 | 0.00 | 25 | 1002.2 |
| 20260904224549 | 94 | 173 | 9.0 | 16.0 | 0.00 | 0.00 | 0.00 | 26 | 1002.2 |
| 20260904223056 | 94 | 209 | 5.0 | 15.0 | 0.00 | 0.00 | 0.00 | 26 | 1002.3 |
| 20260904221545 | 94 | 178 | 11.0 | 17.0 | 0.00 | 0.00 | 0.00 | 25 | 1002.3 |
| 20260904220050 | 94 | 181 | 8.0 | 19.0 | 0.00 | 0.00 | 0.00 | 25 | 1002.5 |
| 20260904214541 | 94 | 184 | 12.0 | 22.0 | 0.00 | 0.00 | 0.00 | 26 | 1002.6 |
| 20260904213038 | 93 | 188 | 14.0 | 20.0 | 0.00 | 0.00 | 0.00 | 27 | 1002.5 |
| 20260904211540 | 93 | 203 | 12.0 | 25.0 | 0.00 | 0.00 | 0.00 | 26 | 1002.8 |
| 20260904210042 | 93 | 178 | 14.0 | 22.0 | 0.00 | 0.00 | 0.00 | 27 | 1003.0 |
| 20260904204534 | 92 | 174 | 17.0 | 30.0 | 0.00 | 0.00 | 0.00 | 27 | 1002.9 |
| 20260904203033 | 92 | 172 | 13.0 | 22.0 | 0.00 | 0.00 | 0.00 | 26 | 1003.3 |
| 20260904201528 | 92 | 184 | 16.0 | 23.0 | 0.00 | 0.00 | 0.00 | 26 | 1003.4 |
| 20260904200045 | 91 | 179 | 12.0 | 25.0 | 0.00 | 0.00 | 0.00 | 26 | 1003.6 |
| 20260904194537 | 92 | 186 | 16.0 | 27.0 | 0.00 | 0.00 | 0.00 | 26 | 1003.7 |
| 20260904193024 | 92 | 184 | 12.0 | 20.0 | 0.00 | 0.00 | 0.00 | 26 | 1003.9 |
| 20260904191522 | 92 | 200 | 14.0 | 30.0 | 0.00 | 0.00 | 0.00 | 23 | 1003.9 |
| 20260904190019 | 92 | 197 | 12.0 | 26.0 | 0.00 | 0.00 | 0.00 | 23 | 1004.0 |
| 20260904184515 | 91 | 191 | 15.0 | 28.0 | 0.00 | 0.00 | 0.00 | 24 | 1004.1 |
| 20260904183013 | 91 | 192 | 14.0 | 22.0 | 0.00 | 0.00 | 0.00 | 25 | 1004.3 |
| 20260904181510 | 90 | 190 | 12.0 | 21.0 | 0.00 | 0.00 | 0.00 | 27 | 1004.5 |
| 20260904180008 | 90 | 200 | 14.0 | 26.0 | 0.00 | 0.00 | 0.00 | 27 | 1004.6 |
| 20260904174509 | 90 | 172 | 14.0 | 25.0 | 0.00 | 0.00 | 0.00 | 27 | 1004.7 |
| 20260904173001 | 88 | 173 | 12.0 | 25.0 | 0.00 | 0.00 | 0.00 | 28 | 1004.9 |
| 20260904171501 | 88 | 192 | 14.0 | 22.0 | 0.00 | 0.00 | 0.00 | 29 | 1004.8 |
| 20260904170058 | 88 | 155 | 10.0 | 17.0 | 0.00 | 0.00 | 0.00 | 31 | 1004.9 |
| 20260904164554 | 87 | 150 | 11.0 | 14.0 | 0.00 | 0.00 | 0.00 | 33 | 1004.9 |
| 20260904163054 | 84 | 156 | 7.0 | 13.0 | 0.00 | 0.00 | 0.00 | 38 | 1005.0 |
| 20260904161547 | 82 | 184 | 8.0 | 15.0 | 0.00 | 0.00 | 0.00 | 41 | 1005.1 |
| 20260904160044 | 80 | 175 | 7.0 | 13.0 | 0.00 | 0.00 | 0.00 | 44 | 1005.1 |
| 20260904154545 | 81 | 196 | 7.0 | 13.0 | 0.00 | 0.00 | 0.00 | 44 | 1005.0 |
| 20260904153037 | 80 | 171 | 9.0 | 18.0 | 0.00 | 0.00 | 0.00 | 46 | 1005.0 |
| 20260904144526 | 74 | 185 | 5.0 | 10.0 | 0.00 | 0.00 | 0.00 | 54 | 1004.8 |
| 20260904143025 | 75 | 193 | 10.0 | 16.0 | 0.00 | 0.00 | 0.00 | 51 | 1005.0 |
| 20260904141523 | 76 | 232 | 8.0 | 21.0 | 0.00 | 0.00 | 0.00 | 47 | 1005.3 |
| 20260904140022 | 76 | 201 | 9.0 | 15.0 | 0.00 | 0.00 | 0.00 | 42 | 1005.3 |
| 20260904134521 | 77 | 186 | 8.0 | 17.0 | 0.00 | 0.00 | 0.00 | 37 | 1004.8 |
| 20260904133018 | 77 | 167 | 12.0 | 19.0 | 0.00 | 0.00 | 0.00 | 36 | 1004.8 |
| 20260904131514 | 75 | 155 | 10.0 | 18.0 | 0.00 | 0.00 | 0.00 | 37 | 1005.0 |
| 20260904130012 | 71 | 159 | 15.0 | 21.0 | 0.00 | 0.00 | 0.00 | 43 | 1004.7 |
| 20260904124508 | 64 | 198 | 1.0 | 5.0 | 0.00 | 0.00 | 0.00 | 57 | 1004.5 |
| 20260904123005 | 63 | 194 | 4.0 | 6.0 | 0.00 | 0.00 | 0.00 | 55 | 1004.3 |
| 20260904121505 | 61 | 188 | 0.0 | 0.0 | 0.00 | 0.00 | 0.00 | 58 | 1004.1 |
| 20260904120003 | 62 | 188 | 0.0 | 4.0 | 0.00 | 0.00 | 0.00 | 57 | 1004.0 |
| 20260904114502 | 61 | 187 | 2.0 | 4.0 | 0.00 | 0.00 | 0.00 | 56 | 1003.9 |
| 20260904113100 | 59 | 188 | 2.0 | 4.0 | 0.00 | 0.00 | 0.00 | 64 | 1003.9 |
| 20260904111550 | 58 | 187 | 3.0 | 4.0 | 0.00 | 0.00 | 0.00 | 68 | 1004.0 |
| 20260904110147 | 59 | 187 | 0.0 | 0.0 | 0.00 | 0.00 | 0.00 | 67 | 1004.1 |
| 20260904104544 | 60 | 187 | 2.0 | 4.0 | 0.00 | 0.00 | 0.00 | 65 | 1004.0 |
| 20260904103042 | 61 | 187 | 1.0 | 5.0 | 0.00 | 0.00 | 0.00 | 64 | 1003.9 |
| 20260904101541 | 61 | 187 | 1.0 | 4.0 | 0.00 | 0.00 | 0.00 | 66 | 1004.0 |
| 20260904100044 | 62 | 187 | 2.0 | 6.0 | 0.00 | 0.00 | 0.00 | 65 | 1003.9 |
| 20260904094539 | 61 | 188 | 4.0 | 5.0 | 0.00 | 0.00 | 0.00 | 66 | 1003.8 |
| 20260904093055 | 62 | 184 | 3.0 | 7.0 | 0.00 | 0.00 | 0.00 | 65 | 1003.8 |
| 20260904091538 | 65 | 167 | 5.0 | 6.0 | 0.00 | 0.00 | 0.00 | 59 | 1003.9 |
| 20260904090040 | 65 | 181 | 3.0 | 4.0 | 0.00 | 0.00 | 0.00 | 61 | 1004.0 |
| 20260904084536 | 64 | 183 | 2.0 | 4.0 | 0.00 | 0.00 | 0.00 | 63 | 1004.0 |
| 20260904083036 | 61 | 183 | 4.0 | 6.0 | 0.00 | 0.00 | 0.00 | 69 | 1004.1 |
| 20260904081532 | 61 | 183 | 3.0 | 5.0 | 0.00 | 0.00 | 0.00 | 68 | 1004.1 |
| 20260904080031 | 62 | 180 | 4.0 | 6.0 | 0.00 | 0.00 | 0.00 | 66 | 1004.1 |
| 20260904074529 | 62 | 182 | 2.0 | 5.0 | 0.00 | 0.00 | 0.00 | 67 | 1004.3 |
| 20260904073047 | 62 | 185 | 3.0 | 6.0 | 0.00 | 0.00 | 0.00 | 66 | 1004.4 |
| 20260904071524 | 63 | 186 | 4.0 | 6.0 | 0.00 | 0.00 | 0.00 | 65 | 1004.4 |
| 20260904070020 | 65 | 184 | 0.0 | 0.0 | 0.00 | 0.00 | 0.00 | 61 | 1004.5 |
| 20260904064520 | 67 | 184 | 0.0 | 2.0 | 0.00 | 0.00 | 0.00 | 59 | 1004.6 |
| 20260904063016 | 66 | 184 | 0.0 | 2.0 | 0.00 | 0.00 | 0.00 | 59 | 1004.7 |
| 20260904061513 | 67 | 184 | 0.0 | 0.0 | 0.00 | 0.00 | 0.00 | 58 | 1004.7 |
| 20260904060011 | 67 | 184 | 1.0 | 4.0 | 0.00 | 0.00 | 0.00 | 58 | 1004.7 |
| 20260904054512 | 68 | 183 | 2.0 | 4.0 | 0.00 | 0.00 | 0.00 | 56 | 1004.6 |